1998-067TR

Last updated on Sun Aug 28 2022 00:02:06 GMT+0000 (Coordinated Universal Time)

1 53306U 98067TR 22239.46393222 .00028380 00000+0 46151-3 0 9996 2 53306 51.6428 343.1745 0001424 159.4555 200.6493 15.52450934 5723
UTC large
Height (km)
Speed (km/s)
/
Latitude / Longitude
Inclination (degrees)
Orbital Period (minutes)
Azimuth
Elevation
Range (km)
Doppler Factor

Next 0 passes for location: London (51.5072 / 0.1276)

Sorry there are no passes over London.